Location: Newark
(48.4472°N, 1.4892°E)
Time: 02:35:42
(UTC+00:00)

Transit 4A - Pass Details

Date: 30 November 2019
Orbit: 870 x 975 km, 66.8° (Epoch: 09 December)

Event Time Altitude Azimuth Distance (km) Brightness Sun altitude
Exits shadow 03:37:26 27° 128° (SE) 1,612 9.4 -36.5°
Drops below altitude 10° 03:39:58 10° 135° (SE) 2,513 10.5 -36.1°
Sets 03:42:27 0° 138° (SE) 3,446 11.3 -35.7°
